Dewpoint
3 7 11 13 13 14 14 12 13 12 12 10 10 7 6 3 1 -4 -12 -13 -11 -14 -14 -14 -16 -18 -18 -18 -14 -5 -7 -4
1 5 9 12 13 14 13 12 12 11 10 9 7 5 3 2 -1 -7 -12 -12 -12 -14 -14 -14 -18 -17 -17 -18 -18 -13 -4 -5
-2 5 9 11 12 13 13 12 11 11 10 8 5 4 2 1 -2 -8 -10 -12 -13 -14 -14 -15 -18 -17 -18 -18 -18 -17 -13 -8
-2 3 8 11 12 13 12 12 12 11 10 8 5 4 2 1 -1 -4 -7 -10 -13 -15 -15 -16 -18 -17 -15 -18 -17 -14 -15 -14
-1 -1 8 11 12 12 12 12 11 11 10 9 5 4 2 1 -0 -2 -6 -9 -12 -14 -15 -15 -17 -17 -16 -19 -17 -12 -9 -17
1 1 8 10 12 12 12 12 11 11 10 8 6 4 3 2 1 -1 -3 -7 -10 -14 -14 -15 -16 -16 -17 -18 -18 -15 -8 -10
1 1 4 11 11 11 12 12 11 11 10 8 6 4 3 2 1 0 -2 -4 -8 -12 -14 -14 -15 -15 -16 -16 -17 -17 -13 -8
1 2 3 8 10 11 11 11 11 10 10 9 7 5 4 3 3 1 0 -1 -6 -10 -13 -12 -14 -14 -15 -15 -17 -19 -19 -15
-2 1 2 3 7 9 10 10 10 10 10 9 9 6 4 4 2 2 1 0 -3 -8 -9 -9 -12 -13 -12 -14 -17 -18 -19 -20
-3 -2 -3 2 3 5 8 9 10 10 9 9 8 6 5 5 3 2 1 0 -1 -3 -7 -7 -8 -9 -11 -13 -15 -17 -18 -19
-7 -5 -2 -4 -0 3 4 7 8 8 8 8 8 7 6 4 4 2 1 1 -0 -1 -2 -4 -5 -6 -10 -11 -14 -15 -16 -18
-6 -8 -4 -2 -3 -1 2 4 6 6 7 8 7 7 6 6 4 3 2 1 0 -0 -1 -3 -5 -6 -8 -10 -13 -14 -17 -18
-6 -6 -7 -2 -2 -2 -3 0 1 5 5 6 6 6 6 5 4 3 2 1 -0 -1 -1 -2 -3 -3 -6 -11 -13 -15 -18 -17
-6 -6 -3 -5 -3 -1 -0 -1 -2 -0 3 5 5 6 5 5 4 3 2 0 -0 -1 -1 -2 -2 -4 -9 -11 -13 -15 -14 -12
-6 -8 -8 -5 -4 -4 -0 2 1 -0 0 3 4 5 4 4 4 3 1 0 -1 -1 -2 -2 -4 -7 -10 -11 -14 -10 -3 -10
-12 -10 -9 -8 -6 -5 -3 -1 1 2 1 1 2 4 4 4 3 2 1 0 -0 -1 -2 -3 -5 -6 -7 -10 -7 -6 -6 -9
-13 -9 -9 -8 -4 -3 -2 -2 0 1 2 2 2 3 3 4 3 2 1 0 -0 -1 -2 -4 -6 -5 -5 -5 -4 -5 -7 -9
-2 -2 -4 -5 -4 -3 -2 -2 -1 -0 1 2 2 2 2 3 3 2 1 0 -0 -1 -2 -4 -4 -4 -4 -3 -4 -10 -7 -5
-3 -3 -4 -3 -3 -4 -3 -2 -1 -1 1 2 2 2 2 3 3 2 1 0 -0 -1 -2 -4 -4 -4 -3 -5 -6 -5 -6 -6
Wind_Speed
33 31 34 31 33 42 36 36 43 41 39 39 36 36 33 35 35 33 35 33 29 27 25 22 20 19 17 17 17 16 12 12
30 32 33 34 29 41 39 38 42 40 40 40 41 41 38 37 34 35 35 34 31 30 28 23 23 20 19 19 18 19 19 18
27 35 34 37 34 41 43 42 41 43 42 41 39 39 38 37 34 35 32 35 34 32 28 25 25 23 23 21 19 19 19 18
28 29 40 39 37 39 45 44 44 45 41 38 33 33 33 34 35 37 33 35 34 33 30 28 28 27 23 23 21 20 18 19
23 21 42 40 38 39 42 44 44 45 41 36 36 38 38 38 38 37 34 35 34 35 32 31 30 27 26 25 24 20 17 16
13 9 20 43 41 37 40 42 44 42 41 36 37 36 37 35 36 36 36 36 35 37 34 34 31 30 28 26 26 25 22 17
19 11 13 35 31 31 35 40 40 40 40 40 36 39 37 36 36 36 37 37 37 38 37 35 33 32 31 29 26 25 24 21
25 23 15 10 22 25 25 32 38 41 41 43 40 39 41 36 35 37 39 38 39 40 39 36 34 34 32 30 27 26 24 23
23 19 17 9 9 19 21 25 32 37 40 43 47 42 40 33 33 37 38 37 39 38 36 35 35 34 30 28 27 25 24 23
17 19 18 10 9 2 13 19 23 28 33 38 38 43 38 38 32 34 36 36 35 35 35 32 32 30 29 27 26 26 24 22
23 16 14 14 8 4 8 14 17 19 28 32 34 36 41 36 32 35 35 34 32 33 32 33 32 30 27 26 25 24 22 20
28 24 15 14 14 9 9 12 16 20 18 25 32 33 34 37 33 36 38 35 34 34 34 35 34 31 28 29 27 24 22 19
23 29 26 13 13 14 15 12 12 19 21 25 31 33 34 36 41 38 39 39 39 38 36 38 36 34 34 34 29 25 23 18
19 12 20 23 17 18 14 12 15 15 21 27 22 34 36 36 40 39 40 43 42 40 39 37 37 37 34 31 28 24 19 16
18 23 14 15 15 19 18 14 11 14 19 20 26 28 33 34 37 39 40 44 43 41 38 38 37 34 35 31 28 24 19 20
16 18 19 15 17 14 16 14 17 16 15 19 24 29 28 31 36 39 41 45 44 40 38 36 35 36 35 31 25 20 20 21
19 25 19 17 11 11 13 12 14 18 19 19 22 29 31 34 33 38 43 45 43 40 38 38 40 37 31 27 24 25 24 21
15 25 19 14 14 14 16 16 16 19 21 21 21 26 30 34 36 38 42 44 45 42 40 39 38 35 30 28 25 25 22 22
15 18 25 22 16 14 15 17 16 20 21 23 22 25 27 32 37 41 43 44 45 42 40 38 39 33 30 28 26 24 22 18
Wind_Direction
209 209 208 213 215 222 214 210 210 207 209 205 201 204 205 207 214 211 208 207 206 204 207 209 203 201 202 198 192 186 186 180
218 205 204 202 207 212 214 205 211 210 207 203 199 204 199 207 213 213 208 207 205 205 211 205 204 205 205 205 198 191 186 186
252 196 198 206 197 211 215 212 213 216 215 204 204 208 204 210 209 216 208 209 207 208 213 206 205 205 208 206 199 192 193 188
240 210 194 204 201 206 215 215 213 213 213 206 202 204 206 207 210 216 209 210 208 209 211 207 204 211 212 206 201 203 202 198
265 244 191 196 201 205 215 214 212 212 207 207 202 203 199 207 212 216 212 212 209 209 209 209 210 211 210 206 204 199 210 209
7 354 207 197 193 199 211 214 213 216 212 202 204 202 205 207 211 216 215 214 209 210 209 211 210 209 211 208 205 203 205 214
28 11 25 193 189 194 201 205 209 216 216 204 206 206 203 204 209 215 216 214 211 211 211 212 210 211 211 211 207 205 200 205
29 36 36 117 177 185 203 213 215 218 220 216 207 213 212 211 216 215 216 215 213 213 212 211 209 212 213 210 206 205 203 205
24 24 36 40 125 202 207 223 222 222 225 222 218 216 214 209 212 215 223 223 219 215 212 210 210 213 212 208 207 206 204 206
21 7 5 25 34 189 208 229 231 229 228 228 224 221 223 215 215 219 224 225 223 220 213 208 214 214 210 207 204 204 205 207
359 4 350 353 339 299 251 223 222 230 239 237 230 226 224 221 212 213 214 217 219 219 214 208 212 212 209 207 204 203 202 202
342 346 343 325 332 318 264 240 235 232 234 236 230 228 227 225 215 221 219 224 217 217 215 214 219 218 211 211 210 206 201 201
323 328 333 313 313 317 307 290 262 229 226 234 238 234 229 221 217 222 219 214 217 221 217 214 215 219 214 210 205 198 196 198
294 289 302 326 323 299 292 299 282 272 239 225 241 228 223 223 221 222 217 215 213 215 218 216 216 212 200 200 198 193 191 204
279 296 271 258 262 302 278 274 268 267 259 236 237 232 225 225 223 222 217 213 213 213 219 219 215 204 198 197 193 194 215 209
293 279 280 269 274 264 288 291 270 262 272 245 230 236 234 230 222 218 215 214 215 217 216 213 205 199 200 197 201 206 206 208
309 291 284 273 283 307 316 279 294 258 248 250 232 233 237 225 218 213 214 211 214 217 213 210 202 203 204 204 209 208 205 209
321 321 328 294 297 292 288 303 292 289 248 236 227 226 223 221 218 213 211 212 213 215 215 210 204 206 205 205 202 199 197 211
304 313 309 302 323 308 305 299 301 302 267 224 217 217 215 216 220 216 210 210 212 216 213 206 205 207 208 198 197 200 202 200
Height
1415 1420 1426 1432 1438 1438 1444 1450 1454 1457 1463 1467 1472 1474 1479 1480 1482 1486 1491 1494 1499 1501 1504 1507 1509 1512 1514 1515 1517 1520 1523 1524
1407 1411 1417 1424 1433 1432 1434 1441 1447 1452 1458 1461 1464 1465 1472 1474 1477 1480 1485 1490 1494 1496 1498 1503 1505 1507 1510 1512 1514 1516 1519 1522
1403 1402 1408 1413 1423 1426 1429 1433 1439 1445 1451 1457 1462 1463 1468 1471 1473 1475 1481 1485 1488 1491 1494 1499 1501 1502 1505 1508 1510 1513 1515 1517
1397 1397 1398 1403 1413 1417 1422 1427 1432 1437 1446 1454 1459 1462 1466 1467 1468 1469 1475 1479 1483 1486 1489 1493 1495 1497 1501 1504 1507 1508 1511 1513
1389 1391 1390 1393 1401 1409 1417 1423 1427 1433 1440 1446 1453 1454 1455 1459 1462 1465 1470 1473 1478 1481 1484 1487 1490 1493 1495 1499 1502 1505 1506 1509
1389 1390 1395 1390 1395 1400 1409 1417 1423 1429 1435 1441 1447 1451 1453 1455 1457 1460 1464 1467 1473 1475 1478 1481 1484 1486 1489 1493 1496 1499 1502 1504
1390 1389 1389 1393 1399 1403 1406 1410 1419 1424 1429 1436 1441 1444 1447 1449 1451 1454 1456 1461 1466 1469 1472 1475 1478 1480 1483 1486 1491 1495 1497 1499
1392 1389 1393 1400 1403 1401 1408 1412 1416 1419 1423 1430 1436 1439 1441 1445 1447 1448 1450 1454 1457 1462 1465 1470 1472 1475 1478 1480 1484 1488 1492 1495
1399 1396 1398 1400 1404 1407 1406 1410 1414 1417 1420 1425 1430 1434 1437 1442 1444 1445 1447 1451 1454 1456 1462 1467 1467 1470 1474 1477 1479 1484 1487 1489
1406 1404 1403 1403 1404 1408 1410 1411 1412 1414 1416 1421 1425 1428 1432 1437 1440 1442 1445 1447 1451 1454 1456 1460 1465 1469 1470 1474 1476 1478 1481 1484
1414 1409 1407 1408 1407 1408 1410 1412 1414 1414 1413 1415 1419 1424 1428 1432 1436 1439 1440 1444 1446 1449 1454 1455 1461 1465 1467 1471 1472 1474 1477 1481
1417 1411 1409 1409 1411 1411 1411 1411 1412 1413 1414 1412 1414 1417 1421 1427 1430 1433 1436 1439 1440 1444 1448 1450 1454 1460 1464 1467 1468 1471 1473 1477
1423 1412 1410 1409 1409 1412 1411 1410 1410 1412 1413 1413 1411 1413 1416 1418 1421 1425 1427 1430 1434 1438 1442 1445 1448 1452 1459 1461 1464 1467 1468 1472
1413 1409 1411 1409 1409 1408 1407 1407 1408 1409 1409 1409 1408 1408 1411 1414 1416 1418 1422 1423 1427 1431 1436 1441 1444 1448 1452 1456 1459 1461 1464 1469
1411 1408 1406 1405 1406 1407 1404 1401 1401 1405 1406 1406 1406 1405 1405 1408 1411 1414 1418 1421 1423 1426 1432 1436 1440 1445 1448 1451 1455 1458 1460 1467
1405 1404 1401 1402 1401 1400 1400 1398 1396 1396 1398 1400 1402 1402 1404 1405 1406 1408 1412 1414 1418 1424 1428 1433 1439 1441 1444 1447 1452 1455 1458 1461
1401 1400 1397 1397 1395 1393 1394 1394 1394 1393 1391 1392 1395 1397 1401 1401 1401 1403 1405 1410 1414 1419 1423 1427 1432 1436 1441 1445 1447 1450 1452 1458
1399 1398 1394 1392 1390 1391 1391 1391 1391 1389 1386 1385 1388 1391 1394 1395 1396 1398 1400 1405 1409 1413 1418 1423 1430 1433 1437 1440 1442 1446 1448 1452
1398 1396 1395 1390 1387 1386 1386 1386 1384 1383 1381 1379 1382 1385 1385 1389 1393 1393 1395 1399 1404 1408 1412 1418 1424 1430 1434 1436 1439 1443 1445 1448